Regional Weather Roundup
Issued by NWS

Home | Current Version | Previous Version | Graphics & Text | Print | Product List | Glossary Off
Versions: 1 2 3 4 5 6 7 8 9 10 11 12 13 14 15 16 17 18 19 20 21 22 23 24 25 26 27 28 29 30 31 32 33 34 35 36 37 38 39 40 41 42 43 44 45 46 47 48 49 50

000
ASUS43 KLSX 171607
RWRMO

WEATHER SUMMARY FOR MISSOURI
NATIONAL WEATHER SERVICE SPRINGFIELD MO
1000 AM CST TUE JAN 17 2017

NOTE: "FAIR" INDICATES FEW OR NO CLOUDS BELOW 12,000 FEET WITH NO
       SIGNIFICANT WEATHER AND/OR OBSTRUCTIONS TO VISIBILITY.
       CURRENT SKY AND/OR WEATHER CONDITIONS ARE NOT AVAILABLE FOR
       CHILLICOTHE AND FARMINGTON.

MOZ001>031-035>038-043-044-053-054-171700-
...NORTHERN AND WESTERN MISSOURI...

CITY           SKY/WX    TMP DP  RH WIND       PRES   REMARKS
KANSAS CTY INT FOG       34  33  96 W9        30.09S VSB 1   WCI  27
KANSAS C DTWN  CLOUDY    37  35  92 W5        30.10R
LEE`S SUMMIT   CLOUDY    35  34  96 W8        30.10R FOG     WCI  29
ST JOSEPH      CLOUDY    34  34 100 W12       30.11R WCI  25
CHILLICOTHE      N/A     36  34  92 W7        30.08R
KIRKSVILLE     CLOUDY    36  35  96 W9        30.02R WCI  29

$$
MOZ066>068-077>081-088>096-101>105-171700-
...SOUTHWEST MISSOURI...

CITY           SKY/WX    TMP DP  RH WIND       PRES   REMARKS
SPRINGFIELD    CLOUDY    38  36  92 W9        30.10R FOG
JOPLIN         CLOUDY    37  35  92 W9        30.14R
BRANSON        CLOUDY    39  34  81 W8        30.12R

$$
MOZ032>034-039>042-045>050-055>058-069>072-171700-
...CENTRAL MISSOURI...

CITY           SKY/WX    TMP DP  RH WIND       PRES   REMARKS
COLUMBIA       CLOUDY    38  36  92 W10       30.05R FOG
JEFFERSON CITY CLOUDY    40  36  86 W14       30.08R
ROLLA          CLOUDY    39  38  96 W13       30.04R FOG
SEDALIA        CLOUDY    37  36  96 W10       30.10R FOG     WCI  30
WHITEMAN AFB   CLOUDY    36  36 100 W8        30.08R WCI  29
WARRENSBURG    CLOUDY    34  34 100 W9        30.10R WCI  26
OSAGE BEACH    CLOUDY    39  35  86 W9        30.09R

$$
MOZ051-052-059>065-171700-
...EAST CENTRAL MISSOURI...

CITY           SKY/WX    TMP DP  RH WIND       PRES   REMARKS
ST LOUIS INTL  PTSUNNY   47  38  71 W18G24    30.02R
SPIRIT OF STL  PTSUNNY   45  40  82 W13       30.03R
ST CHARLES     CLOUDY    44  40  85 W17       30.01S

$$
MOZ072>076-082>087-097>100-106>115-171700-
...SOUTH CENTRAL AND SOUTHEAST MISSOURI...

CITY           SKY/WX    TMP DP  RH WIND       PRES   REMARKS
CAPE GIRARDEAU CLOUDY    45  40  82 W9        30.06R
FARMINGTON     CLOUDY    41  38  89 W6        30.06R
POPLAR BLUFF   CLOUDY    44  39  82 SW7       30.09R
WEST PLAINS    CLOUDY    40  37  89 W9        30.11R

$$



USA.gov is the U.S. government's official web portal to all federal, state and local government web resources and services.